Temp
63 63 62 62 62 61 61 61 61 61 61 61 61 61 61 61 61 61 61 61 61 60 61 60 60 61 65 76 82 83 80 80 84 86 88 86 83 82 79 81 81 79 82 85 88 86 85
63 62 62 62 62 61 61 61 61 61 61 61 61 60 61 61 61 61 61 61 60 60 60 60 60 61 73 79 89 86 85 85 88 88 87 87 86 87 82 81 80 82 83 84 85 85 83
62 62 62 62 62 61 61 61 61 61 61 60 60 60 60 60 61 61 60 60 60 60 60 61 62 66 76 84 89 88 88 89 89 90 86 89 89 86 85 81 83 82 79 82 83 85 85
62 62 62 62 61 61 61 61 61 61 60 60 60 60 60 60 60 60 59 59 61 62 61 62 63 70 79 88 89 86 87 88 89 91 90 91 91 87 84 84 82 78 77 76 82 83 84
62 62 61 62 61 61 61 61 60 60 60 60 60 60 60 60 60 59 58 59 63 64 64 64 71 75 82 84 87 90 91 90 88 89 90 92 89 81 83 78 77 75 71 72 75 81 80
61 61 61 62 61 61 60 60 60 60 60 59 59 59 59 59 59 58 58 60 64 65 68 72 76 76 86 84 89 89 88 91 89 87 86 84 82 80 78 79 68 70 70 73 71 79 80
61 61 61 61 61 60 60 60 59 59 59 59 59 59 59 59 59 58 64 74 78 78 77 75 76 76 81 88 89 88 89 89 88 86 79 77 78 75 77 75 75 72 70 69 75 77 75
61 61 62 61 61 60 60 60 59 59 59 59 59 58 59 58 58 57 68 76 73 74 70 76 76 76 81 84 82 87 92 85 82 76 77 77 74 78 76 74 72 71 69 71 75 76 77
60 60 60 61 60 60 60 60 59 59 59 58 58 58 58 58 56 68 71 75 75 75 70 76 78 79 83 85 83 86 91 85 80 75 75 74 77 78 77 74 72 71 71 71 71 75 76
59 59 59 59 59 60 60 59 59 58 58 58 58 58 57 55 68 67 76 73 73 74 70 76 80 84 83 84 83 90 92 87 80 76 74 75 79 76 76 74 74 71 74 73 73 71 68
57 57 57 58 58 58 58 59 59 58 58 58 58 58 56 55 66 74 74 72 75 76 60 78 81 90 85 84 84 85 90 87 79 77 76 73 75 74 74 74 75 73 74 73 72 71 68
57 57 57 57 57 57 57 57 58 58 57 57 57 57 56 60 62 71 71 72 77 68 58 74 80 79 80 81 83 85 86 88 84 78 76 75 80 79 76 77 76 75 73 69 68 69 62
57 57 56 56 56 56 56 56 57 58 57 57 56 55 57 64 76 70 71 78 68 63 73 71 73 76 74 74 78 78 78 75 75 69 68 72 73 77 78 74 75 75 71 63 60 60 60
57 56 56 56 56 55 56 56 56 57 57 56 55 55 60 66 70 67 76 73 59 66 68 75 73 73 71 73 73 74 72 71 73 72 69 66 63 72 76 73 69 68 67 61 50 55 59
57 56 56 56 55 55 55 56 56 57 57 56 54 67 72 74 70 71 75 65 64 66 70 70 72 69 69 71 72 73 70 71 73 73 68 65 65 73 75 76 73 67 64 67 59 56 56
57 56 56 56 55 55 55 56 56 57 56 55 59 64 72 73 72 76 71 57 65 71 72 72 66 69 65 68 70 70 69 73 72 74 74 68 63 70 72 74 74 72 71 62 64 50 48
57 56 56 56 55 55 55 55 56 56 54 53 64 68 76 73 75 73 65 64 66 74 73 70 69 67 67 67 68 67 66 72 73 73 74 72 67 67 70 68 67 68 66 62 63 59 53
57 56 56 56 56 55 55 55 56 54 53 55 60 65 74 74 70 59 65 64 60 71 73 72 73 71 69 68 67 67 66 68 73 74 69 67 68 63 65 69 69 68 66 65 58 54 58
56 56 56 56 56 55 55 55 56 54 53 54 55 58 72 73 64 64 64 66 68 69 70 70 69 71 71 68 63 67 67 72 73 72 69 70 64 59 60 66 68 66 67 65 61 58 56
56 56 56 56 56 56 55 55 55 54 54 54 56 59 67 66 61 62 61 62 64 70 69 69 68 71 68 65 65 64 67 71 72 71 64 69 62 61 57 60 65 61 64 66 63 56 58
56 56 56 56 56 55 56 55 55 54 54 54 57 56 55 59 61 60 60 60 61 62 67 68 67 67 66 62 63 64 66 68 70 67 69 70 61 62 65 65 65 65 64 65 62 62 56
58 57 56 56 56 56 56 56 55 54 53 58 55 55 58 58 55 58 55 58 59 62 63 64 64 66 66 64 66 63 66 65 66 68 67 64 60 59 59 65 65 61 64 64 64 64 64
57 58 57 57 56 56 55 56 55 54 53 55 56 57 56 52 56 57 60 59 59 61 65 66 64 64 64 65 68 71 73 69 69 66 62 61 60 56 53 60 60 54 61 63 64 66 65
56 56 57 57 57 56 56 56 55 54 53 54 56 55 55 53 55 57 58 59 59 60 59 64 66 64 67 70 70 71 71 68 66 65 65 59 55 56 55 54 46 62 65 65 64 65 65
56 56 56 57 57 57 57 56 56 55 54 52 56 55 54 50 54 55 58 58 60 60 60 61 66 68 68 67 64 59 62 62 62 62 62 62 58 55 52 53 57 62 62 62 60 61 65
55 56 56 56 56 57 57 56 56 55 54 54 54 55 53 50 53 56 56 58 57 58 59 62 67 68 68 65 61 53 52 56 55 59 60 59 57 57 50 47 47 59 63 67 64 56 66
55 55 56 56 56 57 57 57 56 56 54 52 53 58 52 47 57 56 55 56 60 57 58 58 61 63 63 62 58 55 55 59 53 53 55 55 53 51 52 50 57 64 65 66 53 57 66
55 55 55 55 56 56 57 57 57 56 56 53 55 58 52 48 53 57 60 57 59 59 55 59 60 58 60 56 57 58 56 58 56 57 56 55 52 51 50 49 48 65 64 58 63 66 65
54 54 55 55 55 56 56 57 57 56 55 55 49 60 57 48 52 58 61 62 62 63 59 59 57 56 62 59 57 58 55 55 52 50 56 51 57 56 55 59 62 66 65 69 67 65 66
MSLP
1021.53 1021.21 1020.82 1020.49 1020.14 1019.74 1019.32 1018.91 1018.37 1017.75 1017.10 1016.46 1015.67 1014.93 1014.25 1013.59 1012.98 1012.37 1011.70 1011.18 1010.86 1010.54 1010.34 1010.42 1010.56 1010.55 1010.45 1009.22 1006.95 1006.31 1006.22 1006.42 1006.89 1006.94 1006.67 1006.67 1006.67 1006.66 1006.46 1006.52 1006.51 1006.24 1005.68 1005.30 1004.98 1004.77 1004.48
1021.73 1021.42 1021.03 1020.69 1020.31 1019.87 1019.42 1018.96 1018.39 1017.72 1017.08 1016.32 1015.55 1014.74 1014.03 1013.35 1012.66 1011.99 1011.23 1010.59 1010.26 1010.05 1010.01 1010.06 1010.21 1010.32 1009.60 1007.71 1006.15 1006.23 1006.42 1006.65 1006.58 1006.76 1006.66 1006.61 1006.29 1006.32 1006.31 1006.31 1006.27 1006.01 1005.59 1005.06 1004.69 1004.37 1004.20
1021.95 1021.60 1021.28 1020.88 1020.44 1020.01 1019.49 1018.99 1018.39 1017.74 1017.05 1016.24 1015.43 1014.59 1013.74 1013.04 1012.35 1011.66 1010.82 1010.17 1009.69 1009.54 1009.70 1009.79 1009.93 1009.87 1008.60 1006.84 1006.07 1006.26 1006.43 1006.34 1006.52 1006.46 1006.35 1006.38 1006.25 1006.18 1006.24 1006.13 1006.35 1005.99 1005.44 1004.67 1004.52 1004.28 1004.04
1022.08 1021.76 1021.44 1021.00 1020.60 1020.14 1019.57 1018.96 1018.42 1017.76 1016.94 1016.17 1015.30 1014.35 1013.44 1012.67 1011.96 1011.33 1010.54 1009.88 1009.26 1009.26 1009.55 1009.72 1009.82 1009.35 1007.26 1006.01 1006.08 1006.26 1006.40 1006.42 1006.55 1006.48 1006.29 1006.21 1006.25 1006.21 1006.28 1006.40 1006.16 1005.78 1005.52 1004.67 1004.51 1004.62 1004.40
1022.17 1021.78 1021.39 1020.98 1020.62 1020.21 1019.68 1019.03 1018.41 1017.77 1016.92 1015.99 1015.11 1014.19 1013.27 1012.37 1011.54 1011.00 1010.46 1009.90 1009.44 1009.49 1009.54 1009.76 1009.62 1008.63 1006.45 1005.88 1005.89 1005.65 1005.77 1005.82 1006.20 1006.36 1006.38 1006.29 1006.28 1006.46 1006.44 1006.15 1005.96 1006.08 1005.42 1005.25 1004.98 1004.89 1004.92
1022.30 1021.92 1021.56 1021.14 1020.68 1020.15 1019.64 1019.01 1018.27 1017.57 1016.87 1016.06 1015.04 1014.05 1013.12 1012.21 1011.35 1010.71 1010.28 1009.93 1009.68 1009.64 1009.68 1009.46 1008.95 1008.39 1006.15 1005.80 1005.41 1005.52 1005.81 1005.72 1005.76 1006.09 1006.26 1006.36 1006.45 1006.41 1006.56 1006.20 1005.90 1005.99 1005.77 1005.48 1005.25 1004.98 1004.87
1022.34 1021.96 1021.65 1021.21 1020.69 1020.14 1019.61 1018.97 1018.21 1017.41 1016.65 1015.89 1015.01 1013.99 1012.89 1011.99 1011.11 1010.55 1009.85 1009.69 1009.87 1009.57 1008.91 1008.67 1008.28 1007.41 1006.31 1005.69 1005.51 1005.27 1005.42 1005.56 1005.65 1005.76 1005.99 1006.57 1006.20 1005.95 1006.00 1006.34 1006.32 1006.46 1006.25 1005.93 1005.16 1005.26 1005.27
1022.36 1021.96 1021.61 1021.16 1020.61 1020.08 1019.50 1018.88 1018.21 1017.40 1016.53 1015.67 1014.88 1013.90 1012.81 1011.73 1011.06 1010.26 1009.90 1010.10 1011.02 1011.05 1009.55 1008.05 1007.60 1007.15 1006.43 1006.08 1005.36 1005.07 1005.19 1005.18 1005.50 1005.75 1006.31 1006.43 1005.93 1005.96 1006.24 1006.33 1006.43 1006.46 1006.21 1005.82 1005.33 1005.42 1005.27
1022.56 1022.12 1021.66 1021.17 1020.63 1020.13 1019.56 1018.91 1018.18 1017.34 1016.51 1015.65 1014.75 1014.01 1012.97 1011.50 1010.82 1010.28 1010.72 1010.84 1010.98 1010.72 1009.75 1007.58 1006.84 1006.31 1005.92 1005.79 1005.06 1004.77 1004.96 1005.03 1005.28 1005.72 1006.08 1006.03 1005.92 1005.88 1005.84 1006.19 1006.26 1006.32 1006.10 1005.86 1005.80 1005.35 1005.25
1022.91 1022.43 1021.96 1021.41 1020.83 1020.22 1019.59 1018.95 1018.19 1017.36 1016.49 1015.52 1014.60 1013.87 1013.07 1011.61 1011.07 1011.56 1010.94 1010.94 1010.80 1010.56 1009.01 1007.24 1006.15 1005.46 1005.66 1005.32 1004.83 1004.50 1004.58 1004.75 1005.28 1005.65 1006.12 1006.11 1006.08 1006.00 1005.99 1006.12 1006.37 1006.09 1006.35 1006.12 1005.75 1005.68 1005.25
1023.06 1022.61 1022.13 1021.55 1020.98 1020.34 1019.67 1018.93 1018.14 1017.26 1016.30 1015.34 1014.52 1013.86 1013.23 1012.69 1012.20 1011.40 1011.12 1010.81 1010.44 1010.17 1008.09 1006.53 1005.34 1004.87 1005.00 1005.01 1004.79 1004.57 1004.64 1004.63 1005.00 1005.55 1006.18 1006.21 1006.14 1006.17 1006.08 1006.32 1006.45 1006.29 1006.47 1006.34 1006.05 1005.74 1005.94
1023.16 1022.70 1022.23 1021.72 1021.12 1020.44 1019.74 1018.98 1018.01 1017.20 1016.24 1015.16 1014.24 1013.80 1013.29 1012.69 1012.37 1011.14 1010.85 1010.53 1010.04 1009.16 1007.28 1005.97 1005.22 1005.03 1004.89 1004.89 1004.69 1004.68 1004.61 1004.89 1005.39 1005.73 1006.17 1006.34 1006.49 1006.45 1006.54 1006.57 1006.65 1006.66 1006.56 1006.69 1006.70 1006.29 1006.02
1023.31 1022.91 1022.49 1021.98 1021.38 1020.67 1019.93 1019.02 1018.11 1017.23 1016.19 1015.04 1013.87 1013.22 1012.68 1012.25 1011.47 1011.10 1010.69 1010.01 1009.20 1007.94 1007.11 1006.42 1005.71 1005.58 1005.43 1005.39 1005.11 1005.10 1005.06 1005.43 1005.70 1006.04 1006.27 1006.62 1006.72 1006.86 1006.87 1006.63 1006.90 1006.72 1006.63 1006.41 1006.58 1006.53 1006.15
1023.49 1023.10 1022.62 1022.11 1021.57 1020.92 1020.09 1019.17 1018.30 1017.24 1016.18 1014.87 1013.49 1012.61 1012.28 1011.70 1011.29 1011.15 1010.29 1009.52 1008.62 1007.84 1007.03 1006.57 1006.24 1006.02 1005.89 1006.01 1005.88 1005.75 1005.85 1006.11 1006.45 1006.52 1006.74 1006.82 1007.06 1007.11 1007.29 1007.29 1007.38 1007.63 1007.80 1007.65 1007.45 1007.38 1007.11
1023.46 1023.01 1022.56 1022.07 1021.50 1020.85 1020.13 1019.28 1018.27 1017.24 1016.16 1014.95 1013.25 1012.11 1011.53 1011.16 1011.05 1010.91 1009.98 1009.13 1008.33 1007.95 1007.54 1006.95 1006.45 1006.27 1006.35 1006.37 1006.35 1006.11 1006.54 1006.72 1006.89 1007.00 1007.04 1007.31 1007.40 1007.70 1007.76 1007.76 1008.05 1008.16 1008.42 1009.18 1008.74 1009.20 1008.39
1023.61 1023.21 1022.76 1022.27 1021.72 1021.12 1020.42 1019.56 1018.57 1017.42 1016.19 1015.13 1014.22 1012.96 1011.38 1011.07 1010.90 1010.48 1009.89 1009.25 1008.89 1008.34 1007.78 1007.31 1006.80 1006.87 1006.74 1006.78 1006.61 1006.59 1006.98 1007.41 1007.39 1007.51 1007.61 1007.92 1007.79 1008.03 1008.21 1008.41 1008.59 1008.36 1009.25 1009.22 1009.10 1008.79 1008.25
1023.62 1023.20 1022.80 1022.36 1021.87 1021.32 1020.67 1019.89 1018.96 1017.74 1016.39 1015.00 1014.27 1012.81 1011.07 1010.92 1010.73 1010.26 1009.94 1009.77 1009.21 1008.46 1008.19 1007.59 1007.16 1007.15 1007.28 1007.26 1007.31 1007.37 1007.81 1008.03 1008.06 1008.00 1007.97 1008.18 1008.37 1008.38 1008.37 1008.39 1008.57 1009.08 1009.14 1009.81 1009.98 1009.85 1008.80
1023.61 1023.22 1022.81 1022.37 1021.95 1021.45 1020.88 1020.17 1019.28 1018.31 1016.98 1015.57 1015.13 1013.10 1011.24 1010.74 1010.76 1011.39 1010.64 1010.32 1009.96 1008.91 1008.41 1007.86 1007.50 1007.42 1007.50 1007.74 1007.78 1007.90 1008.09 1008.41 1008.52 1008.35 1008.41 1009.10 1008.83 1008.47 1008.63 1009.02 1009.35 1009.27 1009.28 1009.55 1009.65 1009.80 1009.45
1023.61 1023.27 1022.86 1022.42 1022.03 1021.56 1021.05 1020.44 1019.67 1019.00 1018.51 1017.99 1016.38 1014.33 1011.64 1011.12 1011.19 1011.20 1010.91 1010.44 1010.05 1009.30 1008.83 1008.41 1008.04 1008.00 1007.99 1008.15 1008.51 1008.52 1008.64 1008.94 1008.80 1008.79 1009.00 1009.20 1009.27 1008.86 1008.75 1009.18 1009.27 1009.12 1009.30 1009.75 1010.08 1010.11 1008.99
1023.60 1023.35 1022.99 1022.57 1022.10 1021.64 1021.16 1020.59 1019.94 1019.35 1018.93 1018.59 1017.07 1015.14 1012.85 1012.31 1012.64 1011.95 1011.44 1010.87 1010.20 1009.78 1009.39 1009.18 1008.83 1008.50 1008.47 1008.70 1008.91 1008.91 1008.96 1009.13 1009.27 1009.37 1009.59 1009.55 1009.71 1009.31 1008.92 1008.89 1009.16 1009.09 1009.10 1009.26 1009.59 1009.19 1008.10
1023.35 1023.19 1022.95 1022.66 1022.36 1021.93 1021.44 1020.89 1020.29 1019.66 1019.03 1018.71 1017.37 1016.29 1015.82 1013.99 1013.24 1012.78 1012.30 1011.80 1010.94 1010.23 1009.97 1009.67 1009.29 1009.20 1009.15 1009.21 1009.27 1009.20 1009.31 1009.44 1009.65 1009.83 1009.94 1009.93 1009.81 1009.86 1009.36 1009.31 1009.20 1008.93 1008.73 1008.65 1008.70 1008.30 1008.07
1022.88 1022.76 1022.63 1022.45 1022.27 1021.92 1021.49 1021.09 1020.65 1019.94 1019.04 1018.27 1017.71 1017.14 1016.29 1015.29 1014.46 1013.51 1012.90 1012.22 1011.67 1011.31 1010.88 1010.15 1009.85 1009.83 1009.85 1009.69 1009.54 1009.41 1009.58 1009.78 1009.68 1010.24 1010.28 1010.68 1010.18 1010.17 1009.65 1009.28 1009.09 1008.66 1008.37 1008.07 1007.93 1007.67 1007.42
1022.59 1022.46 1022.36 1022.19 1022.01 1021.81 1021.54 1021.16 1020.84 1020.35 1019.52 1018.82 1018.54 1018.10 1017.18 1015.76 1014.85 1014.06 1013.04 1012.70 1012.28 1012.03 1011.44 1011.14 1011.00 1010.52 1010.21 1010.47 1010.48 1010.18 1009.88 1009.97 1010.06 1010.39 1010.80 1011.13 1010.84 1010.67 1009.51 1009.43 1009.10 1008.62 1007.61 1007.59 1007.52 1007.36 1007.29
1022.12 1022.06 1021.93 1021.94 1021.87 1021.75 1021.53 1021.30 1021.04 1020.80 1020.52 1019.98 1019.29 1018.69 1017.49 1016.01 1015.41 1014.41 1013.78 1013.43 1012.90 1012.70 1012.29 1011.70 1011.31 1010.98 1011.15 1010.90 1010.59 1010.33 1010.11 1010.09 1010.33 1010.69 1011.13 1011.22 1011.38 1011.16 1010.07 1009.95 1008.77 1007.68 1007.92 1007.95 1007.81 1007.64 1007.79
1021.69 1021.63 1021.49 1021.43 1021.40 1021.43 1021.27 1021.16 1020.99 1020.84 1020.69 1020.29 1019.61 1019.10 1018.09 1016.80 1016.04 1015.05 1014.37 1013.89 1013.50 1013.33 1012.98 1012.27 1011.65 1011.51 1011.42 1010.97 1010.58 1010.32 1010.19 1010.18 1010.33 1010.85 1011.25 1011.64 1011.58 1011.01 1010.56 1009.60 1008.55 1007.79 1008.04 1008.07 1007.89 1007.66 1007.85
1021.43 1021.30 1021.17 1021.12 1021.08 1021.14 1021.09 1020.96 1020.89 1020.74 1020.67 1020.26 1019.77 1019.54 1018.93 1017.86 1015.98 1015.68 1014.77 1014.16 1013.58 1013.35 1013.03 1012.38 1012.11 1011.90 1011.56 1011.02 1010.63 1010.16 1010.05 1010.17 1010.40 1010.88 1011.59 1011.83 1011.96 1011.38 1011.08 1009.83 1008.33 1007.86 1008.22 1008.30 1008.41 1007.79 1008.01
1020.98 1020.93 1020.81 1020.74 1020.74 1020.75 1020.77 1020.79 1020.71 1020.69 1020.56 1020.58 1019.92 1019.51 1019.24 1018.32 1016.55 1016.10 1015.13 1014.55 1014.09 1013.70 1013.17 1012.94 1012.56 1012.13 1011.94 1010.98 1010.54 1010.26 1010.09 1010.41 1010.38 1010.58 1010.93 1011.26 1011.52 1011.22 1010.56 1009.72 1008.57 1008.10 1008.39 1008.58 1008.37 1008.39 1008.23
1020.45 1020.38 1020.43 1020.33 1020.34 1020.36 1020.38 1020.42 1020.44 1020.47 1020.39 1020.42 1019.57 1019.42 1019.30 1018.46 1017.18 1016.42 1015.75 1015.15 1014.48 1014.06 1013.49 1013.44 1013.17 1012.80 1012.08 1011.34 1010.87 1010.44 1010.27 1010.40 1010.49 1010.44 1010.50 1010.65 1010.88 1010.66 1010.43 1009.61 1008.74 1008.60 1008.76 1008.56 1008.45 1008.26 1008.50
1019.85 1019.83 1019.92 1019.92 1019.91 1019.96 1020.00 1019.98 1020.06 1020.17 1020.24 1020.21 1019.71 1018.84 1019.07 1019.01 1017.54 1016.59 1015.97 1015.65 1014.93 1014.65 1014.33 1013.80 1013.32 1013.08 1012.43 1011.73 1011.44 1011.18 1010.79 1010.92 1010.75 1010.36 1010.89 1010.80 1010.52 1010.27 1010.09 1008.80 1008.68 1008.65 1008.46 1008.20 1008.31 1008.23 1008.35
Wind_Speed
15 15 16 16 16 16 17 17 18 19 20 21 22 22 23 22 22 22 22 20 18 16 14 10 7 6 3 2 3 3 10 12 11 4 6 6 7 4 3 2 2 6 5 5 8 12 12
15 15 16 16 16 17 17 18 19 20 21 22 22 23 23 22 22 21 21 19 16 13 9 6 5 3 3 2 3 8 11 10 9 6 4 5 6 4 2 2 3 1 8 13 9 10 5
14 15 15 15 16 17 18 19 20 21 21 22 23 23 24 23 22 21 21 18 14 8 5 5 5 4 1 3 3 7 9 3 9 4 4 4 2 3 2 3 2 3 9 6 2 5 4
14 14 14 15 16 17 18 19 20 21 22 22 23 24 24 24 22 20 20 17 10 3 5 6 7 2 3 3 6 7 4 4 4 4 1 1 2 2 1 1 2 3 0 5 4 6 3
14 15 15 16 16 17 18 19 20 20 21 23 24 24 25 25 24 20 17 12 7 7 8 9 2 2 4 2 3 3 6 4 5 2 0 4 2 3 1 2 1 4 5 7 5 5 5
14 15 16 17 17 17 18 19 20 21 21 22 24 25 25 26 24 20 16 4 5 4 4 4 2 2 1 1 2 3 3 4 3 5 4 2 3 1 2 1 4 7 5 4 7 2 4
13 14 16 18 18 19 19 21 21 22 22 22 23 25 26 26 25 19 6 3 2 1 2 2 3 4 4 7 4 2 4 6 2 3 1 3 3 2 2 2 2 1 4 8 4 2 2
14 13 16 18 18 19 21 23 24 22 23 23 23 24 26 27 24 19 2 6 3 3 7 2 5 7 6 3 2 2 7 3 2 3 2 2 1 3 2 2 2 2 4 3 8 2 3
16 16 15 19 19 20 22 23 25 24 24 24 24 23 25 27 26 3 4 6 4 5 3 5 4 3 0 6 2 5 9 3 3 3 3 1 3 4 3 4 3 1 3 2 4 7 3
17 18 19 19 19 19 21 24 25 26 25 25 25 24 22 31 1 4 2 3 6 5 2 2 1 3 4 2 1 3 6 3 2 1 5 2 1 2 4 4 2 0 2 7 8 5 6
18 19 20 20 19 20 21 24 26 27 28 26 25 23 19 11 4 2 4 8 1 4 2 1 2 2 2 2 1 2 2 2 5 4 3 3 2 2 5 3 2 1 4 5 6 6 2
19 20 21 22 22 22 22 22 25 28 29 28 28 24 18 2 2 4 8 7 3 3 2 2 2 2 1 3 3 2 2 4 2 3 2 2 2 2 3 1 2 6 3 2 2 1 5
18 19 20 21 22 23 23 23 23 27 28 29 30 26 8 1 4 6 7 1 2 3 1 3 3 4 2 4 2 4 2 3 1 3 2 2 2 1 2 1 2 5 6 3 2 4 2
18 19 20 21 22 23 23 23 23 24 27 29 31 21 2 3 5 6 2 1 3 1 2 2 3 1 3 5 3 3 3 4 4 2 3 3 5 2 5 4 4 4 4 3 5 3 5
18 19 20 21 22 23 24 24 25 25 28 29 25 4 2 4 0 2 1 2 1 1 2 4 1 2 2 2 3 2 4 3 3 1 1 3 3 1 4 4 2 3 2 2 2 1 4
17 18 19 20 21 22 24 24 26 26 27 27 6 5 3 8 0 1 1 1 2 2 4 2 1 1 1 3 1 2 3 3 2 3 3 3 2 1 3 4 8 5 5 1 2 4 5
16 18 19 19 20 21 23 24 24 25 28 21 2 4 2 8 2 3 1 1 3 3 2 2 2 3 2 1 2 2 3 3 4 2 3 3 3 3 3 1 1 4 3 4 0 3 5
16 17 17 19 20 21 22 23 23 21 27 9 4 3 4 5 1 1 1 1 4 4 4 2 1 2 2 2 2 3 3 3 8 2 0 2 1 3 1 1 3 1 1 1 4 2 5
15 16 17 18 19 20 21 21 21 20 16 5 5 4 3 3 2 2 0 0 2 5 4 5 2 3 1 3 3 2 2 2 5 2 2 4 1 3 3 5 3 4 4 3 2 3 12
13 14 15 16 17 19 20 20 19 20 20 3 3 3 2 4 2 1 1 1 1 3 1 3 2 1 3 2 3 5 4 1 4 3 5 3 3 5 7 7 3 6 6 7 8 8 13
13 12 13 15 16 16 18 19 18 19 22 3 2 3 3 3 3 3 1 2 1 2 2 5 2 4 0 3 2 2 1 1 1 1 2 2 5 5 13 10 8 12 15 16 14 17 11
13 12 13 14 14 16 16 16 18 20 21 1 3 3 2 3 4 3 1 2 1 3 3 2 2 5 1 2 2 6 3 2 2 2 3 1 7 2 11 13 15 18 18 19 18 17 18
11 12 11 12 13 14 14 16 17 18 16 3 2 0 3 2 3 3 1 3 3 2 2 1 5 4 2 3 7 6 5 2 3 3 3 3 2 2 7 5 7 10 17 13 9 8 7
12 11 10 11 12 11 13 13 14 13 11 3 2 2 2 2 3 3 1 2 1 1 3 4 5 2 3 7 3 3 2 3 3 2 5 4 3 3 3 3 6 4 1 3 7 7 7
12 12 10 10 9 10 11 11 11 11 11 3 2 3 2 4 4 10 9 5 5 2 4 5 4 2 5 1 2 3 3 3 3 3 1 5 3 3 4 4 5 7 3 4 2 7 5
14 12 11 10 9 8 10 10 10 10 10 4 2 1 2 3 4 6 7 5 6 4 5 5 1 5 1 1 3 6 6 2 3 4 4 6 1 4 3 4 6 2 3 4 3 2 2
13 13 11 10 11 9 8 9 8 9 8 3 3 4 2 3 6 4 5 5 2 2 2 3 4 1 2 4 6 7 8 2 5 5 4 3 3 6 5 5 5 1 2 2 5 4 2
13 14 11 11 10 9 9 8 8 7 9 4 4 4 3 3 8 6 5 8 6 3 5 3 4 4 2 5 6 5 6 6 5 2 4 5 4 4 3 5 4 3 4 3 3 2 4
15 14 12 9 11 9 9 7 7 5 7 6 3 2 3 4 6 5 12 16 11 12 4 2 4 3 2 1 1 1 3 3 3 4 2 5 5 2 6 2 2 2 9 9 6 10 6
Wind_Direction
7 4 5 2 358 356 354 348 343 339 336 333 330 327 323 323 322 320 316 311 309 303 297 293 285 274 233 194 255 76 102 120 145 184 162 153 166 160 180 195 208 232 267 270 269 286 278
8 5 4 0 356 353 351 348 342 339 335 332 330 326 324 325 324 323 317 312 308 301 289 271 243 229 214 140 93 142 132 138 156 169 167 177 185 197 141 224 244 303 280 284 292 304 236
5 3 360 357 354 350 348 346 342 338 334 332 329 327 326 327 328 327 322 320 315 296 255 220 199 221 189 112 92 148 155 161 162 174 162 207 199 205 155 271 336 286 301 318 62 356 351
1 359 356 355 351 348 346 344 341 337 334 331 329 328 328 329 331 334 328 327 328 95 147 164 172 237 247 122 124 145 185 128 184 213 243 168 189 112 311 319 338 336 316 358 38 345 7
359 357 355 355 350 347 344 341 339 337 334 331 330 330 329 330 332 337 331 327 70 104 124 145 189 333 119 145 217 145 173 140 147 125 147 90 72 53 143 316 279 33 343 329 330 308 337
0 358 357 356 351 347 343 341 339 337 335 332 330 330 331 330 333 336 327 242 93 121 159 224 235 224 178 85 327 110 165 149 115 125 113 72 66 187 117 253 347 323 326 317 281 282 316
358 358 357 356 352 349 346 345 340 338 335 334 332 330 330 330 333 333 338 197 352 120 38 329 320 281 314 310 248 162 147 135 115 78 134 46 225 233 331 227 275 274 272 288 289 324 264
355 354 356 355 353 349 349 349 344 339 337 335 333 332 332 327 330 323 268 65 73 328 314 274 255 270 262 279 302 120 164 130 135 129 136 163 323 336 171 195 204 208 262 255 294 311 267
2 357 353 354 352 351 350 348 345 341 337 335 333 334 331 326 323 -0 12 95 7 165 271 299 228 249 219 180 188 183 181 137 133 161 170 194 358 339 136 103 155 111 308 326 302 326 122
358 358 356 351 346 348 348 347 346 342 338 335 333 335 337 325 357 341 82 359 328 198 336 30 146 153 147 223 148 203 196 142 130 126 153 238 27 66 93 73 259 316 308 275 288 278 299
1 359 355 350 347 349 344 346 345 343 340 335 332 335 336 332 315 290 356 331 266 209 116 31 93 88 131 233 306 90 162 147 169 154 205 74 130 89 49 54 219 315 317 287 289 240 283
359 358 356 354 354 349 344 340 344 343 338 334 329 332 331 205 221 287 325 313 198 242 147 75 14 350 173 27 13 18 130 64 59 116 60 21 2 39 348 307 4 314 232 79 96 200 237
359 358 357 354 354 352 348 341 338 341 336 332 329 328 314 262 352 338 318 230 220 225 331 19 12 14 92 8 49 20 97 62 224 192 85 68 50 309 2 335 90 -0 339 320 198 203 303
357 357 357 356 354 353 349 345 340 338 336 332 328 321 213 243 307 316 278 182 228 84 18 5 19 97 83 359 58 45 95 108 63 75 115 187 181 35 353 35 339 39 347 326 292 261 317
355 355 356 356 355 355 351 347 344 339 338 334 320 333 298 354 97 281 349 209 125 145 306 321 40 103 76 41 353 97 57 68 33 44 185 175 149 18 45 41 300 110 56 10 244 137 256
353 353 353 355 355 355 354 351 344 341 337 337 332 327 283 346 167 335 83 181 228 260 320 225 115 344 116 11 88 64 72 17 53 19 275 150 257 104 128 189 63 69 128 213 55 299 288
350 351 352 353 354 355 355 354 345 349 339 329 343 327 44 344 231 43 146 242 287 282 317 221 152 130 120 115 54 71 43 72 7 52 48 138 269 131 243 68 130 160 137 72 58 279 292
346 348 349 351 352 353 355 355 353 350 342 26 339 296 13 317 355 33 148 260 338 336 8 23 144 112 143 132 107 113 120 24 346 270 76 67 183 233 334 38 288 271 118 113 335 274 246
343 345 346 347 349 352 353 355 353 353 11 327 343 292 334 309 219 175 227 261 316 354 1 15 76 19 85 127 129 128 135 82 18 67 158 175 201 253 204 166 163 230 177 126 113 236 253
339 344 347 347 346 349 351 353 347 351 354 327 307 317 330 54 34 33 14 27 328 358 97 350 329 148 122 114 35 150 161 165 4 87 73 129 153 259 272 291 292 236 225 234 272 266 274
326 328 335 344 347 346 348 350 347 344 345 284 6 40 11 352 70 17 307 340 312 353 36 22 111 43 79 145 136 172 190 203 163 56 107 217 248 232 267 251 229 259 263 270 254 253 253
314 323 327 332 340 344 346 351 350 345 337 328 353 349 4 302 302 278 299 170 206 328 305 48 48 347 353 197 244 188 186 224 263 145 207 112 274 240 265 264 258 262 258 262 262 260 255
285 306 317 324 329 340 342 346 352 352 341 357 21 171 287 13 324 261 206 163 134 328 198 332 351 294 237 58 317 305 241 298 322 288 198 251 234 252 278 299 254 249 252 251 244 249 267
286 290 297 315 320 327 338 343 348 351 4 314 2 297 298 266 253 261 265 337 272 322 294 311 318 263 51 310 235 211 247 286 264 251 230 228 222 220 280 225 235 53 195 265 266 297 257
297 290 290 296 307 319 330 338 340 345 348 313 315 306 292 265 303 278 267 273 289 279 259 271 276 18 322 341 189 222 232 227 140 69 97 216 200 206 262 237 320 260 185 202 234 306 331
297 287 280 288 296 307 317 328 331 339 344 329 287 282 274 286 234 297 294 262 249 263 268 250 282 328 307 209 194 221 245 269 224 173 97 134 74 254 180 252 271 89 161 197 184 238 62
281 289 283 280 285 285 299 314 320 325 331 321 291 238 274 254 270 272 268 283 228 204 262 293 337 272 340 203 221 217 233 200 226 222 196 193 180 233 231 254 268 267 177 178 259 42 346
268 276 284 276 280 287 281 298 309 318 319 339 285 239 245 256 283 263 269 267 263 264 266 16 265 174 228 223 238 200 230 195 210 220 202 217 201 209 185 227 240 145 144 257 5 322 286
256 262 269 275 280 277 276 275 293 283 314 336 272 262 199 237 295 291 279 267 258 257 292 220 325 291 316 267 202 162 200 179 203 218 177 222 225 238 223 271 82 245 269 279 265 282 291